📊 Raw Sensor Data
Showing records 33951 to 33975 of 84,813 total
| ID | Distance (ft) | Battery V | Battery A | Int Temp (°F) | Int Humid (%) | Ext Temp (°F) | Solar V | RSSI | SNR | Time Stamp |
|---|---|---|---|---|---|---|---|---|---|---|
| 50875 | 15.5 | 3.87 | 0 | 111 | 42 | 99 | 5.10 | -69 | 8 | 09/01/2025 02:45 PM |
| 50874 | 15.6 | 3.89 | 0 | 109 | 43 | 97 | 5.10 | -71 | 8 | 09/01/2025 02:30 PM |
| 50873 | 15.5 | 4.10 | 0 | 108 | 42 | 96 | 5.20 | -69 | 9 | 09/01/2025 02:15 PM |
| 50872 | 15.5 | 3.92 | 5 | 107 | 42 | 96 | 5.10 | -70 | 8 | 09/01/2025 02:00 PM |
| 50871 | 15.6 | 3.89 | 6 | 106 | 42 | 97 | 5.20 | -71 | 8 | 09/01/2025 01:45 PM |
| 50870 | 15.6 | 3.89 | 0 | 104 | 43 | 94 | 5.20 | -69 | 7 | 09/01/2025 01:30 PM |
| 50869 | 15.5 | 3.92 | 6 | 104 | 42 | 95 | 5.10 | -69 | 8 | 09/01/2025 01:15 PM |
| 50868 | 15.4 | 3.89 | 6 | 104 | 42 | 95 | 5.10 | -69 | 8 | 09/01/2025 01:00 PM |
| 50867 | 15.5 | 4.10 | 6 | 103 | 42 | 95 | 5.20 | -70 | 8 | 09/01/2025 12:45 PM |
| 50866 | 15.5 | 3.89 | 0 | 102 | 41 | 96 | 5.10 | -72 | 8 | 09/01/2025 12:30 PM |
| 50865 | 15.6 | 3.89 | 0 | 101 | 41 | 97 | 5.20 | -72 | 6 | 09/01/2025 12:15 PM |
| 50864 | 15.6 | 3.89 | 7 | 98 | 41 | 95 | 5.20 | -71 | 7 | 09/01/2025 12:00 PM |
| 50863 | 15.6 | 3.89 | 0 | 96 | 41 | 95 | 5.10 | -71 | 8 | 09/01/2025 11:45 AM |
| 50862 | 15.6 | 3.90 | 8 | 95 | 41 | 91 | 5.10 | -71 | 7 | 09/01/2025 11:30 AM |
| 50861 | 15.9 | 3.89 | 8 | 93 | 41 | 92 | 5.10 | -70 | 7 | 09/01/2025 11:15 AM |
| 50860 | 15.7 | 3.89 | 0 | 91 | 40 | 93 | 5.10 | -71 | 7 | 09/01/2025 11:00 AM |
| 50859 | 15.6 | 3.89 | 8 | 88 | 41 | 90 | 5.10 | -71 | 7 | 09/01/2025 10:45 AM |
| 50858 | 15.6 | 4.06 | 8 | 85 | 41 | 86 | 5.10 | -72 | 6 | 09/01/2025 10:30 AM |
| 50857 | 15.5 | 4.10 | 9 | 84 | 41 | 82 | 5.10 | -69 | 7 | 09/01/2025 10:15 AM |
| 50856 | 15.6 | 3.89 | 0 | 82 | 41 | 81 | 5.10 | -71 | 7 | 09/01/2025 10:00 AM |
| 50855 | 15.6 | 3.89 | 9 | 79 | 41 | 83 | 5.10 | -72 | 7 | 09/01/2025 09:45 AM |
| 50854 | 15.6 | 3.89 | 0 | 77 | 41 | 82 | 5.10 | -71 | 7 | 09/01/2025 09:30 AM |
| 50853 | 15.5 | 3.89 | 9 | 75 | 41 | 76 | 5.10 | -71 | 8 | 09/01/2025 09:15 AM |
| 50852 | 15.5 | 3.89 | 0 | 74 | 41 | 77 | 5.10 | -72 | 7 | 09/01/2025 09:00 AM |
| 50851 | 15.5 | 4.06 | 10 | 73 | 41 | 76 | 5.10 | -71 | 8 | 09/01/2025 08:45 AM |